Pasco, WA

11:02 AM PDT on June 22, 2017 (GMT -0700)
Tri-Cities

Weather History for KPSC - December, 2012

Change the Weather History Date:

Sunday, December 2, 2012

  Actual Average Record
Temperature  
Mean Temperature 50 °F 36 °F  
Max Temperature 55 °F 43 °F 57 °F (1998)
Min Temperature 44 °F 29 °F 10 °F (2014)
Degree Days  
Heating Degree Days 15 29  
Month to date heating degree days 29 58  
Since 1 July heating degree days 1126 1287  
Cooling Degree Days 0 0  
Month to date cooling degree days 0 0  
Year to date cooling degree days 788 710  
Moisture  
Dew Point 40 °F    
Average Humidity 73    
Maximum Humidity 100    
Minimum Humidity 46    
Precipitation  
Precipitation 0.19 in 0.03 in 0.30 in (1980)
Month to date precipitation 0.20 0.06  
Year to date precipitation 8.76 7.68  
Snow  
Snow 0.00 in - - ()
Snow Depth 0.00 in    
Sea Level Pressure  
Sea Level Pressure 29.49 in    
Wind  
Wind Speed 11 mph (SSW)    
Max Wind Speed 39 mph    
Max Gust Speed 48 mph    
Visibility 10 miles    
Events Rain    
T = Trace of Precipitation, MM = Missing Value Source: NWS Daily Summary

Daily Weather History Graph

Daily Weather History Graph

Search for Another Location

Airport or City:

Trip Planner

Search our weather history database for the weather conditions in past years. The results will help you decide how hot, cold, wet, or windy it might be!

Date:

Astronomy

Dec. 02, 2012 Rise Set
Actual Time 7:20 AM PST 4:11 PM PST
Civil Twilight 6:46 AM PST 4:45 PM PST
Nautical Twilight 6:08 AM PST 5:23 PM PST
Astronomical Twilight 5:32 AM PST 5:59 PM PST
Moon 8:09 PM PST (12/2) 10:08 AM PST (12/2)
Length of Visible Light 9h 59m
Length of Day
8h 50m
Waning Gibbous, 85% of the Moon is Illuminated
Dec 2
Waning Gibbous
Dec 6
Last Quarter
Dec 13
New
Dec 19
First Quarter
Dec 28
Full

Hourly Weather History & Observations

Time (PST) Temp. Windchill Dew Point Humidity Pressure Visibility Wind Dir Wind Speed Gust Speed Precip Events Conditions
12:53 AM 46.9 °F - 45.0 °F 93% 29.39 in 10.0 mi East 6.9 mph - 0.01 in Rain Light Rain
1:53 AM 46.9 °F - 45.0 °F 93% 29.33 in 10.0 mi East 10.4 mph - 0.08 in Rain Rain
2:53 AM 46.9 °F - 46.0 °F 97% 29.27 in 10.0 mi SSE 4.6 mph - 0.06 in Rain Light Rain
3:53 AM 46.0 °F 43.9 °F 45.0 °F 96% 29.23 in 10.0 mi SSE 4.6 mph - 0.03 in Rain Light Rain
4:30 AM 46.4 °F 45.2 °F 46.4 °F 100% 29.21 in 10.0 mi South 3.5 mph - 0.00 in   Overcast
4:53 AM 46.0 °F 43.9 °F 45.0 °F 96% 29.21 in 10.0 mi SSE 4.6 mph - 0.01 in   Mostly Cloudy
5:06 AM 46.4 °F - 44.6 °F 93% 29.21 in 10.0 mi Calm Calm - N/A   Mostly Cloudy
5:53 AM 46.0 °F 43.9 °F 45.0 °F 96% 29.24 in 10.0 mi SW 4.6 mph - N/A   Mostly Cloudy
6:27 AM 48.2 °F - 46.4 °F 93% 29.26 in 10.0 mi West 16.1 mph - N/A   Mostly Cloudy
6:53 AM 46.0 °F 40.6 °F 43.0 °F 89% 29.28 in 10.0 mi WNW 11.5 mph - N/A   Mostly Cloudy
7:24 AM 44.6 °F 40.2 °F 42.8 °F 93% 29.29 in 10.0 mi West 8.1 mph - N/A   Partly Cloudy
7:53 AM 46.9 °F - 42.1 °F 83% 29.30 in 10.0 mi South 3.5 mph - N/A   Clear
8:29 AM 48.2 °F - 41.0 °F 76% 29.32 in 10.0 mi WSW 15.0 mph 31.1 mph N/A   Clear
8:53 AM 48.9 °F - 39.9 °F 71% 29.35 in 10.0 mi SW 19.6 mph 26.5 mph N/A   Clear
9:53 AM 51.1 °F - 39.9 °F 66% 29.41 in 10.0 mi WSW 13.8 mph 24.2 mph N/A   Clear
10:53 AM 52.0 °F - 39.0 °F 61% 29.47 in 10.0 mi SW 18.4 mph 29.9 mph N/A   Clear
11:53 AM 53.1 °F - 37.9 °F 57% 29.51 in 10.0 mi SW 28.8 mph 39.1 mph N/A   Clear
12:53 PM 53.1 °F - 36.0 °F 52% 29.55 in 10.0 mi SW 31.1 mph 46.0 mph N/A   Clear
1:53 PM 54.0 °F - 35.1 °F 49% 29.60 in 10.0 mi SW 28.8 mph 35.7 mph N/A   Clear
2:53 PM 53.1 °F - 34.0 °F 48% 29.65 in 10.0 mi SW 23.0 mph 35.7 mph N/A   Clear
3:53 PM 50.0 °F - 35.1 °F 57% 29.70 in 10.0 mi SW 11.5 mph - N/A   Clear
4:53 PM 48.9 °F - 35.1 °F 59% 29.74 in 10.0 mi SSW 10.4 mph - N/A   Partly Cloudy
5:53 PM 46.0 °F 40.2 °F 35.1 °F 66% 29.76 in 10.0 mi SSW 12.7 mph - N/A   Clear
6:53 PM 46.9 °F - 35.1 °F 63% 29.78 in 10.0 mi WSW 16.1 mph - N/A   Clear
7:53 PM 46.0 °F 39.3 °F 34.0 °F 63% 29.80 in 10.0 mi SW 16.1 mph - N/A   Clear
8:53 PM 48.0 °F - 34.0 °F 58% 29.82 in 10.0 mi SSW 15.0 mph - N/A   Clear
9:53 PM 48.9 °F - 34.0 °F 56% 29.86 in 10.0 mi SSW 6.9 mph - N/A   Clear
10:53 PM 48.0 °F - 34.0 °F 58% 29.88 in 10.0 mi South 11.5 mph - N/A   Clear
11:53 PM 50.0 °F - 34.0 °F 54% 29.89 in 10.0 mi SSW 12.7 mph - N/A   Clear